Volver al catálogo

JILIN-01 GAOFEN 3H

ActivoCienciaSSO
NORAD 46460·PAYLOAD·🇨🇳 China

Lanzado Sep 15, 2020 desde Yellow Sea Launch Area

Loading…

Próximos Pases (próximas 24 horas)

TLE

ActualizadoSource: Space-Track

Época: Sep 14, 2026, 13:50 UTC

1 46460U 20065G   26257.57659459  .00199083  00000-0  73229-3 0  9991
2 46460  97.2017 314.2682 0000583 306.4050  53.7168 15.87759905333968

Sigue JILIN-01 GAOFEN 3H en tiempo real con AllMySat

Download on the App Store